Temperature
22 22 22 22 27 29 27 27 28 28 29 28 27 28 28 28 27 25 20 20 20 20 19 19 20 20 20 19 19 19 19 19 19 19 19 19 19 19 19 19 19 19 19 19 19 19 19 19 19
22 22 22 26 29 28 27 28 28 28 28 27 27 27 28 26 24 22 20 19 20 19 19 19 19 20 20 19 19 19 19 19 19 19 19 19 19 19 19 19 19 19 19 19 19 19 19 18 18
22 23 24 29 28 28 27 28 28 28 27 27 27 27 27 25 23 21 20 20 19 19 19 19 19 19 19 19 19 19 19 19 19 19 19 19 19 19 19 19 19 19 19 19 18 18 18 18 18
22 24 26 29 28 28 28 29 28 28 27 27 27 27 25 23 22 21 20 20 19 19 19 19 20 19 19 19 19 19 19 19 19 19 19 19 19 19 19 19 19 19 18 18 18 18 18 18 18
22 26 28 28 28 28 28 28 28 29 28 28 28 27 25 22 21 21 20 20 20 19 19 19 20 19 19 19 19 19 19 19 19 19 19 19 19 19 19 18 18 18 18 18 18 18 18 18 18
25 28 28 28 28 28 29 28 28 29 28 27 27 27 24 22 21 21 20 20 20 20 19 19 20 19 19 19 19 19 19 19 19 19 18 18 18 19 18 18 17 18 18 18 18 18 18 18 18
26 28 28 28 27 28 28 28 29 29 29 28 27 27 24 22 21 21 20 20 20 20 19 19 19 19 19 19 19 19 19 19 19 19 19 18 18 18 18 18 17 17 18 18 18 18 18 18 18
25 28 28 28 28 28 28 28 28 28 28 27 26 28 26 23 21 21 20 20 20 20 20 19 19 19 18 19 19 19 18 19 19 19 19 19 18 18 18 17 17 17 17 18 18 18 18 18 18
24 28 28 28 28 28 27 28 27 27 27 26 26 26 25 23 21 21 20 20 20 20 20 20 19 19 18 18 18 18 18 18 18 18 18 19 18 17 17 16 17 17 17 18 18 18 18 18 18
26 28 27 27 27 27 27 27 27 28 28 27 26 24 23 22 22 21 21 21 20 20 20 20 19 19 18 18 18 18 18 18 18 18 18 18 17 17 17 17 17 17 17 18 18 18 18 18 17
27 27 27 26 25 26 26 27 27 28 28 27 27 25 23 23 22 22 22 22 21 21 20 20 19 19 18 18 18 18 18 18 18 17 18 18 17 17 17 17 17 16 17 17 17 17 17 18 17
27 26 25 25 24 25 26 26 27 27 26 25 25 24 24 23 23 23 23 23 22 21 20 20 19 19 18 18 18 18 18 18 18 18 17 17 17 17 17 17 17 16 16 16 17 17 17 18 18
26 26 24 23 24 24 25 25 26 25 24 24 25 24 24 24 24 24 24 23 22 21 20 20 19 19 19 18 18 18 18 18 18 18 18 17 17 17 17 17 17 17 17 17 16 17 18 18 18
25 25 24 24 24 24 25 26 26 24 23 24 24 24 24 24 24 24 24 23 22 21 21 20 20 19 19 18 18 18 18 18 18 18 17 18 17 17 17 17 17 17 17 17 17 18 17 17 17
24 26 26 25 25 24 25 26 23 22 22 23 23 23 23 23 23 24 24 23 23 22 22 21 20 20 19 19 19 18 18 18 18 18 18 17 17 17 17 18 17 17 17 17 17 17 17 17 16
26 26 26 25 25 24 25 25 22 21 22 22 22 23 22 22 22 22 23 23 23 23 22 21 20 20 20 19 19 18 18 18 18 18 17 18 17 17 17 17 17 17 17 17 17 17 17 17 17
26 26 26 25 24 25 25 23 21 20 21 21 21 21 21 22 21 21 21 22 22 22 22 22 21 20 20 19 19 18 18 18 18 18 17 17 17 17 17 17 17 17 17 17 17 17 17 17 17
25 25 25 25 24 24 24 23 21 20 20 20 20 20 20 21 21 20 20 20 20 21 21 21 21 20 20 19 19 18 18 18 18 18 17 17 17 17 17 17 17 17 17 17 16 16 16 16 16
24 24 24 24 24 23 23 22 21 20 20 20 20 20 19 19 19 19 19 19 20 20 21 21 21 20 20 20 19 19 19 19 18 18 18 17 17 17 17 17 17 17 17 17 16 16 16 16 16
24 23 24 24 23 23 23 22 21 20 19 19 19 19 19 18 18 18 19 19 19 20 21 21 21 20 20 20 20 20 20 19 19 18 18 18 17 17 17 17 17 17 17 16 16 16 16 16 16
23 23 23 23 23 22 23 22 21 20 20 19 18 18 18 17 17 16 17 17 18 19 20 21 21 20 19 20 20 20 20 19 19 18 18 17 17 17 17 17 17 17 16 16 16 16 16 16 16
23 21 21 22 22 23 22 22 22 20 20 20 19 18 17 17 16 16 15 16 17 18 19 20 20 19 19 19 20 20 19 19 18 18 18 17 17 17 17 17 16 16 16 16 16 16 16 16 16
20 20 21 21 21 22 22 21 22 20 19 19 19 18 17 16 16 15 15 15 16 17 18 19 19 18 18 18 18 19 18 18 18 18 18 17 17 17 17 17 16 16 16 16 16 16 16 16 16
20 20 21 21 21 20 22 22 21 18 18 18 18 17 17 16 16 15 15 15 15 16 17 17 17 17 17 17 17 17 17 16 17 17 17 17 17 17 17 17 16 16 16 16 16 16 16 15 15
19 19 19 19 19 20 21 20 17 16 17 17 17 17 16 16 15 15 15 14 15 15 16 16 16 16 16 16 16 16 16 16 16 16 16 16 16 17 17 17 16 16 16 15 15 15 15 15 15
18 17 16 16 18 18 19 18 15 16 16 16 16 16 16 15 15 15 14 14 14 14 15 15 15 15 15 15 14 15 15 15 15 15 15 15 15 16 16 16 16 16 16 15 15 15 15 15 15
16 16 16 16 17 17 18 17 15 17 17 16 16 15 15 15 15 14 14 13 13 13 14 14 14 14 14 14 14 14 14 14 14 14 14 15 15 16 16 16 16 16 16 15 15 15 14 14 14
15 14 15 15 15 16 17 16 14 14 15 15 15 14 14 14 14 14 13 13 12 13 13 13 13 13 13 13 13 13 13 13 14 14 14 15 15 15 16 15 15 15 15 15 15 14 14 14 14
13 13 13 14 15 14 15 13 13 12 12 13 13 13 13 13 13 13 13 13 12 12 12 13 13 13 13 13 13 13 13 14 14 14 14 15 15 16 15 15 15 15 15 14 14 14 14 14 14
13 12 12 12 13 13 13 12 12 11 11 11 11 11 11 12 12 13 13 13 13 12 12 12 13 13 13 13 13 13 14 14 14 14 15 15 15 15 15 15 15 15 15 14 14 14 14 14 14
Wind_Speed
2 1 2 3 2 7 11 7 5 5 5 5 4 2 4 4 3 3 5 13 15 16 16 19 17 17 16 15 14 14 14 13 13 12 11 11 10 9 9 10 10 10 9 9 10 9 9 8 8
3 1 3 3 4 10 10 5 6 4 6 5 4 2 3 4 4 6 9 13 15 16 15 17 18 17 17 16 15 14 14 13 13 12 11 11 10 9 9 10 10 10 10 10 10 9 9 9 9
1 2 2 1 5 8 8 5 4 4 5 1 2 2 2 4 5 6 11 15 15 15 14 15 17 16 16 16 15 14 14 13 13 13 11 10 10 9 8 10 10 11 11 11 10 10 10 10 9
3 2 2 3 8 5 3 3 1 4 3 1 1 3 3 4 4 8 14 15 15 14 14 16 16 15 15 15 14 14 14 14 14 13 11 10 9 8 8 9 10 11 11 12 11 11 11 11 10
3 3 2 5 5 3 1 1 1 4 1 1 2 1 4 5 7 11 13 14 15 14 14 16 16 14 14 14 14 15 15 14 14 13 11 10 9 8 8 9 10 11 11 11 11 11 11 11 10
3 3 3 5 5 3 2 1 3 4 2 2 2 1 4 7 9 11 12 13 14 14 13 15 15 14 14 13 14 15 15 15 15 13 12 11 9 8 8 9 9 10 10 10 10 10 10 9 9
3 2 3 5 5 4 2 1 2 2 2 2 1 1 5 8 9 11 11 12 12 13 13 13 15 15 14 13 13 15 16 16 15 14 13 12 10 9 8 8 8 9 8 8 8 8 8 8 8
3 2 4 5 5 3 2 1 0 2 1 2 2 1 3 10 12 12 11 11 11 12 12 12 13 13 14 14 14 14 15 16 15 14 14 12 11 10 8 9 8 7 7 7 7 7 7 7 8
3 4 4 3 3 3 3 1 2 0 2 3 2 2 4 14 15 13 11 11 10 10 10 11 10 11 12 12 14 14 15 15 15 14 13 13 12 11 10 7 8 7 7 6 6 7 6 7 9
3 3 2 2 2 2 2 3 2 2 3 3 3 3 8 15 16 15 14 13 13 12 12 10 10 10 11 10 11 11 13 14 14 13 14 12 9 7 5 12 7 8 7 7 5 5 7 7 7
2 1 2 2 2 3 2 3 3 2 2 3 3 3 11 14 15 15 14 12 12 12 11 10 10 10 10 8 9 9 9 11 11 12 12 9 8 7 6 9 10 9 9 7 8 8 5 4 4
2 2 2 2 3 3 4 4 3 3 6 9 9 5 12 15 16 15 13 12 11 11 11 11 11 10 10 9 8 8 8 9 9 11 12 9 7 6 6 6 7 7 6 4 4 3 4 4 6
2 1 2 2 2 3 4 3 4 7 10 10 8 5 12 14 14 13 12 11 11 11 11 11 12 11 11 9 7 8 8 8 9 10 11 11 7 7 6 6 6 7 6 7 4 4 4 4 3
3 2 2 2 3 2 4 3 3 9 12 11 8 3 6 11 12 11 12 11 11 11 12 12 12 12 11 10 9 8 9 9 9 9 11 11 9 7 6 7 7 7 7 6 5 4 4 4 2
2 5 5 2 2 3 5 2 9 13 12 11 9 6 4 6 9 12 12 12 12 12 12 13 13 13 13 12 11 8 9 10 9 9 12 12 10 9 8 6 7 7 8 8 5 4 4 4 3
5 7 7 1 2 3 5 1 12 13 12 11 10 8 6 5 8 10 12 13 13 13 13 13 12 13 13 11 10 8 9 10 9 9 10 12 12 10 7 6 7 8 8 7 6 5 5 5 4
7 8 7 2 1 2 3 1 10 12 11 11 11 10 9 8 7 8 10 13 13 14 14 15 16 15 14 13 11 9 9 8 9 9 9 11 12 11 9 6 6 9 8 7 7 7 6 5 4
5 6 4 3 1 3 1 3 6 10 11 10 10 11 10 10 10 9 9 9 10 13 15 16 16 16 15 12 11 9 8 8 8 8 9 11 11 11 9 6 9 9 8 8 8 8 6 5 5
5 6 7 3 1 3 2 1 4 7 10 11 11 12 12 13 12 11 9 8 9 12 15 18 18 17 15 13 12 10 9 8 7 8 10 11 12 12 11 8 9 9 9 11 11 9 9 8 7
6 8 8 4 1 5 5 3 3 5 9 10 11 12 13 15 15 14 12 9 9 9 13 17 20 18 18 14 13 10 9 7 7 7 9 11 12 12 11 12 10 11 10 12 12 10 8 8 7
6 7 8 8 5 6 8 8 6 2 5 8 10 12 13 14 16 16 15 13 12 10 11 12 16 16 16 14 11 10 8 6 6 6 7 9 11 11 11 11 10 11 10 10 11 11 12 9 9
8 6 8 9 10 9 7 10 7 1 2 9 12 13 14 15 15 15 16 16 14 13 12 10 11 13 13 11 11 12 8 6 5 5 5 6 9 9 10 9 9 9 8 9 10 11 10 10 9
9 11 11 12 14 14 12 10 6 2 3 9 12 14 14 15 15 15 16 16 15 13 10 5 4 9 10 10 9 9 6 4 4 2 2 2 4 6 7 8 7 8 7 9 9 9 10 9 9
12 13 14 12 12 17 17 13 5 3 7 11 13 15 15 15 15 15 15 15 13 12 8 2 6 9 10 10 10 11 11 7 6 4 3 1 2 4 6 7 7 7 7 7 8 8 9 9 9
13 12 7 9 10 11 6 7 4 6 8 11 14 15 15 14 14 14 14 14 13 12 9 3 7 9 10 11 11 12 12 10 8 5 4 4 3 5 7 7 7 6 6 6 6 7 7 8 8
10 9 6 7 8 6 4 2 6 6 8 11 12 14 14 14 13 12 12 12 11 10 8 8 9 10 10 10 11 11 11 8 6 5 2 5 6 6 6 6 6 5 5 5 5 5 6 6 7
10 8 6 7 10 10 5 3 4 8 12 15 15 16 16 14 12 11 11 11 10 9 8 9 11 12 11 10 10 11 10 8 5 3 3 6 6 4 5 6 6 6 6 6 6 5 6 6 6
8 7 6 4 5 5 3 1 6 16 19 18 18 17 17 14 11 10 9 10 9 9 9 9 10 11 10 10 9 8 8 5 2 3 7 9 7 6 6 7 8 8 8 8 7 6 5 6 5
9 6 5 5 4 4 4 3 8 14 15 16 15 15 15 13 10 8 7 7 7 8 8 9 8 8 8 8 7 6 3 1 4 7 8 7 6 6 7 7 7 8 8 8 7 6 6 6 6
7 7 5 4 5 4 4 2 9 13 14 13 13 13 13 12 10 9 7 6 6 6 6 6 6 6 5 4 3 1 3 5 7 7 5 4 3 4 5 5 6 6 6 7 7 7 6 6 5
Wind_Direction
259 216 222 246 182 90 83 82 80 79 81 78 77 68 43 27 349 27 109 152 145 148 150 154 156 157 155 153 150 147 144 143 140 136 133 127 122 116 109 101 93 89 87 83 80 80 82 86 100
312 259 261 263 100 94 85 78 80 70 99 101 90 77 67 67 52 97 133 150 150 149 154 156 155 160 162 162 160 157 152 151 146 140 136 132 126 118 109 102 95 90 87 85 81 80 84 86 94
239 254 296 90 83 81 87 67 57 108 132 128 109 62 39 62 100 122 138 152 153 153 155 150 157 161 164 166 167 164 159 155 151 146 144 141 134 126 116 108 102 95 90 87 82 77 80 89 98
246 244 240 117 101 85 79 74 53 148 176 196 174 116 86 69 111 124 143 156 156 159 159 156 165 165 166 167 169 164 161 159 157 153 151 148 142 137 131 122 112 103 94 89 84 76 71 78 90
262 257 151 123 114 104 98 336 214 186 198 248 254 102 105 102 112 129 149 158 161 163 164 161 169 168 166 170 171 168 163 162 161 158 156 151 147 144 145 137 122 112 102 93 86 79 70 64 73
260 245 169 145 127 120 123 192 220 211 212 235 253 134 107 130 141 147 151 159 163 165 168 164 168 173 173 175 175 173 167 166 164 161 157 153 150 145 140 135 127 117 108 99 90 81 75 67 66
279 238 168 154 148 138 78 354 231 225 224 225 239 126 127 150 152 155 156 161 164 168 173 173 174 179 180 182 182 178 170 168 166 163 160 157 152 147 139 134 129 122 115 107 97 87 80 74 70
301 214 159 163 167 126 63 113 249 249 140 122 198 289 144 161 158 159 160 168 171 175 180 181 182 181 181 183 184 180 174 170 169 167 164 159 156 154 150 156 139 137 131 116 103 96 92 87 86
284 238 187 159 158 109 45 74 104 189 165 175 205 12 95 149 160 165 168 176 181 187 188 188 187 183 184 183 176 179 177 173 171 172 169 173 177 168 171 142 140 147 137 123 112 103 108 119 113
285 255 102 71 23 43 20 17 13 203 211 207 173 116 141 156 170 178 182 184 188 192 195 194 194 186 186 183 172 184 183 180 185 180 178 192 181 173 157 123 154 147 140 141 128 129 164 203 146
309 359 69 74 357 329 327 352 347 280 271 346 330 185 169 175 184 190 192 192 193 194 193 200 198 192 188 185 180 187 185 184 191 181 181 195 177 174 175 161 166 165 172 171 152 191 173 167 127
309 36 11 23 360 329 326 329 337 352 5 343 316 268 194 193 196 198 198 195 193 198 196 198 201 197 196 191 187 189 188 186 186 187 187 188 189 189 175 187 166 165 180 179 197 208 175 177 161
294 355 46 19 358 337 315 326 339 33 360 345 329 246 210 208 206 205 205 200 199 199 201 200 201 202 198 196 194 192 197 196 192 190 191 191 191 194 177 185 180 186 178 178 194 210 175 193 165
345 315 306 321 328 350 330 330 12 22 1 8 10 340 232 225 224 217 213 213 211 208 207 201 203 204 201 197 201 197 196 195 197 197 200 195 193 197 188 189 189 189 186 184 190 175 161 182 163
277 276 267 291 336 1 308 100 36 6 359 8 8 11 325 267 247 241 233 227 223 216 215 208 207 206 206 205 204 197 199 197 198 200 202 199 197 199 195 193 191 191 189 190 198 170 173 159 162
249 256 255 130 4 356 295 184 28 9 8 10 1 358 345 312 277 263 255 245 239 228 222 212 206 210 207 205 204 201 201 199 202 198 205 202 198 203 199 198 196 194 192 196 193 201 194 181 191
236 254 262 190 62 337 314 45 28 19 20 15 4 353 344 328 310 290 277 265 255 246 234 221 210 209 206 203 202 203 202 199 204 202 204 207 204 206 202 203 200 195 201 205 203 209 208 203 202
273 259 248 250 81 296 274 82 48 30 27 20 10 359 350 339 330 319 305 287 272 261 247 236 218 212 204 200 201 196 199 200 203 206 206 207 207 211 211 207 210 205 209 216 219 214 219 227 217
293 271 267 282 346 286 277 89 65 39 31 22 13 6 356 346 339 334 320 300 267 251 247 241 227 212 204 194 195 189 192 194 203 210 212 209 211 214 217 223 220 214 218 222 225 221 220 224 222
284 277 277 269 228 271 264 226 117 53 36 23 10 5 360 352 348 346 339 328 310 277 255 242 229 213 204 198 191 187 180 187 194 206 210 212 215 219 223 223 224 221 225 230 232 224 227 225 219
290 295 294 286 265 237 262 233 190 110 40 28 17 7 3 358 350 347 346 341 331 315 287 253 232 208 198 192 180 169 159 154 169 195 206 213 216 218 223 227 227 228 226 231 231 224 225 221 223
301 343 305 280 263 255 239 270 201 194 19 19 11 5 0 356 350 348 346 342 338 332 318 278 230 198 181 177 178 167 167 163 166 177 196 212 216 216 219 226 229 231 226 227 228 225 225 221 223
334 322 299 282 268 265 241 255 225 142 355 2 360 356 353 350 346 344 343 339 338 337 332 311 192 161 158 163 166 144 119 110 99 110 162 206 221 217 210 214 216 227 227 230 229 224 224 224 227
332 306 281 260 260 255 251 244 221 58 358 347 347 347 346 345 343 342 342 340 341 345 346 12 135 134 138 140 134 122 109 96 80 51 10 333 244 224 206 204 210 220 225 229 231 229 230 237 239
350 333 290 257 238 252 253 238 99 43 5 347 339 339 341 342 342 342 343 343 343 350 0 41 114 116 121 122 117 112 107 101 85 63 1 317 264 233 211 202 207 215 223 224 225 227 229 233 239
350 348 327 294 289 303 287 227 99 28 3 350 344 341 343 344 344 345 347 349 350 357 21 48 84 94 97 102 103 100 99 95 84 65 3 289 265 244 212 195 196 199 206 209 213 227 226 231 231
348 349 329 291 285 278 261 138 138 358 359 356 352 349 349 347 348 354 358 2 7 16 37 57 74 78 77 82 87 86 86 83 75 42 295 266 254 227 195 184 187 188 194 202 204 223 226 233 235
9 333 315 299 304 292 273 53 5 352 348 347 347 345 345 347 355 5 12 15 20 26 41 54 61 70 73 74 72 77 75 69 30 285 261 251 230 208 191 191 192 188 192 194 200 215 218 228 230
2 355 331 300 290 299 309 56 13 346 338 334 336 341 344 349 358 10 19 19 17 26 32 35 42 56 68 76 80 85 105 187 248 252 249 241 218 204 199 200 200 191 192 195 196 213 210 228 232
15 360 334 324 332 322 311 14 4 344 339 342 344 348 356 6 13 15 13 13 3 4 10 19 23 35 55 77 96 171 226 243 244 239 235 221 208 211 208 197 206 202 203 206 206 214 218 229 240
Height
1513 1512 1511 1512 1510 1510 1517 1516 1511 1511 1510 1513 1514 1513 1512 1513 1517 1524 1525 1525 1528 1530 1532 1533 1535 1537 1539 1541 1543 1544 1545 1546 1547 1548 1549 1550 1551 1551 1551 1551 1552 1552 1552 1551 1551 1552 1552 1553 1554
1514 1513 1514 1513 1508 1519 1522 1514 1512 1512 1514 1516 1516 1516 1515 1517 1521 1523 1523 1526 1529 1531 1533 1535 1536 1538 1540 1542 1543 1545 1546 1547 1548 1549 1549 1550 1551 1552 1553 1553 1553 1552 1552 1552 1552 1552 1553 1554 1555
1514 1514 1516 1510 1512 1518 1520 1514 1513 1514 1517 1517 1517 1517 1517 1520 1523 1524 1524 1526 1530 1532 1535 1536 1537 1538 1540 1542 1544 1545 1546 1548 1548 1549 1550 1551 1552 1553 1553 1553 1553 1553 1553 1553 1553 1553 1554 1555 1555
1516 1517 1516 1511 1518 1516 1515 1513 1515 1515 1517 1517 1516 1518 1520 1523 1524 1525 1525 1527 1530 1533 1535 1536 1537 1539 1541 1542 1544 1545 1547 1548 1549 1550 1551 1552 1553 1553 1554 1554 1553 1553 1553 1553 1554 1554 1555 1555 1556
1517 1517 1513 1516 1517 1514 1514 1515 1515 1515 1515 1516 1516 1516 1521 1524 1524 1525 1526 1529 1531 1534 1536 1537 1537 1539 1541 1543 1544 1545 1547 1548 1549 1550 1551 1552 1553 1553 1554 1554 1554 1554 1554 1554 1555 1555 1556 1556 1557
1520 1514 1515 1520 1517 1515 1514 1515 1515 1514 1515 1517 1517 1517 1522 1524 1524 1526 1528 1530 1532 1534 1536 1537 1537 1539 1541 1543 1544 1545 1547 1548 1549 1550 1551 1552 1553 1554 1554 1554 1554 1554 1555 1555 1556 1556 1557 1558 1558
1520 1513 1515 1516 1518 1516 1515 1516 1514 1514 1515 1516 1517 1518 1522 1524 1525 1527 1529 1531 1533 1534 1536 1538 1538 1539 1540 1542 1544 1546 1547 1548 1549 1550 1551 1553 1554 1554 1555 1555 1555 1555 1555 1556 1556 1557 1558 1559 1559
1519 1515 1516 1516 1518 1517 1517 1516 1516 1516 1516 1518 1519 1517 1520 1524 1524 1527 1529 1531 1533 1535 1537 1538 1540 1541 1541 1542 1544 1546 1547 1549 1550 1550 1551 1552 1553 1554 1555 1555 1555 1555 1556 1556 1557 1558 1558 1559 1560
1520 1516 1517 1517 1517 1517 1517 1515 1517 1517 1517 1518 1519 1520 1521 1522 1524 1527 1529 1531 1533 1535 1537 1539 1540 1541 1541 1542 1543 1545 1547 1548 1549 1550 1551 1552 1554 1555 1555 1556 1555 1556 1556 1557 1558 1558 1559 1560 1560
1519 1516 1517 1518 1518 1518 1518 1517 1516 1516 1516 1517 1519 1521 1521 1522 1524 1526 1528 1530 1532 1534 1536 1538 1540 1541 1541 1542 1543 1544 1546 1547 1549 1550 1551 1552 1555 1556 1557 1555 1556 1556 1557 1557 1558 1559 1560 1561 1563
1518 1517 1518 1519 1521 1520 1519 1518 1518 1516 1515 1518 1519 1521 1521 1522 1524 1526 1528 1530 1532 1534 1536 1537 1539 1540 1541 1541 1542 1543 1545 1546 1548 1550 1550 1553 1554 1555 1556 1557 1557 1557 1558 1560 1559 1560 1562 1563 1563
1519 1519 1520 1521 1522 1521 1520 1519 1518 1518 1520 1521 1520 1520 1521 1522 1523 1525 1527 1529 1531 1533 1535 1536 1537 1539 1540 1541 1541 1542 1543 1544 1546 1548 1551 1552 1553 1555 1556 1557 1558 1558 1559 1561 1562 1562 1562 1563 1564
1519 1519 1522 1522 1522 1522 1521 1520 1520 1521 1523 1521 1519 1519 1520 1521 1523 1526 1527 1529 1531 1532 1533 1535 1536 1538 1539 1539 1540 1541 1541 1543 1545 1547 1550 1551 1553 1554 1555 1556 1556 1558 1560 1560 1561 1562 1563 1563 1564
1521 1521 1521 1521 1521 1521 1520 1519 1520 1523 1523 1521 1519 1519 1520 1522 1523 1525 1527 1528 1530 1531 1532 1533 1534 1536 1537 1538 1538 1540 1541 1542 1543 1545 1547 1550 1551 1553 1554 1555 1555 1557 1559 1560 1561 1562 1562 1562 1563
1521 1519 1518 1519 1520 1520 1520 1518 1525 1526 1523 1521 1520 1520 1521 1521 1523 1524 1525 1527 1528 1529 1530 1531 1532 1534 1536 1537 1538 1539 1539 1541 1542 1544 1546 1548 1550 1552 1553 1554 1555 1556 1557 1559 1560 1561 1561 1561 1561
1518 1517 1517 1518 1519 1520 1520 1521 1529 1527 1524 1522 1521 1520 1521 1521 1521 1522 1523 1524 1525 1526 1528 1529 1529 1531 1533 1535 1536 1537 1538 1539 1540 1542 1544 1546 1548 1550 1552 1553 1554 1555 1556 1558 1559 1560 1560 1561 1561
1516 1517 1517 1518 1520 1519 1519 1523 1530 1528 1526 1524 1522 1521 1520 1519 1519 1519 1519 1520 1521 1523 1524 1526 1527 1528 1530 1532 1533 1534 1536 1536 1538 1539 1541 1544 1546 1548 1550 1551 1552 1553 1554 1556 1557 1558 1559 1560 1560
1519 1518 1520 1519 1519 1519 1519 1524 1529 1529 1527 1525 1523 1521 1519 1518 1517 1516 1515 1515 1515 1517 1519 1522 1523 1524 1526 1528 1530 1531 1532 1533 1535 1536 1538 1540 1542 1544 1547 1548 1550 1551 1552 1553 1554 1555 1556 1557 1558
1520 1520 1520 1519 1520 1521 1520 1524 1527 1529 1527 1525 1523 1521 1519 1517 1515 1513 1512 1511 1511 1511 1512 1515 1517 1519 1521 1522 1525 1526 1528 1530 1532 1533 1535 1537 1539 1541 1543 1545 1547 1548 1549 1550 1551 1552 1553 1554 1556
1521 1522 1520 1518 1521 1519 1519 1522 1525 1528 1527 1526 1524 1521 1519 1516 1513 1510 1509 1508 1507 1507 1506 1507 1510 1512 1513 1516 1519 1521 1524 1526 1529 1531 1532 1534 1536 1538 1540 1541 1543 1544 1545 1547 1548 1549 1550 1551 1553
1522 1524 1522 1522 1519 1519 1519 1519 1523 1525 1525 1525 1524 1522 1519 1516 1512 1509 1506 1504 1502 1502 1501 1500 1502 1504 1505 1509 1512 1516 1520 1522 1525 1527 1529 1531 1533 1535 1536 1538 1539 1540 1542 1543 1545 1546 1547 1548 1549
1523 1527 1526 1523 1522 1517 1519 1520 1515 1521 1522 1523 1522 1521 1519 1516 1512 1508 1504 1500 1498 1496 1494 1494 1495 1497 1499 1502 1505 1509 1514 1518 1521 1524 1526 1528 1530 1531 1533 1534 1535 1537 1538 1540 1541 1542 1543 1545 1546
1533 1530 1527 1523 1519 1517 1514 1520 1510 1520 1522 1522 1522 1521 1519 1516 1512 1508 1504 1499 1496 1492 1490 1489 1490 1492 1494 1497 1500 1504 1508 1512 1516 1520 1522 1524 1526 1528 1529 1531 1532 1534 1535 1536 1537 1538 1539 1541 1542
1536 1530 1523 1521 1519 1522 1508 1511 1514 1523 1526 1525 1523 1521 1519 1516 1512 1508 1503 1499 1495 1491 1488 1487 1487 1489 1491 1493 1496 1499 1503 1507 1511 1515 1518 1521 1523 1525 1526 1527 1529 1531 1532 1532 1533 1534 1535 1536 1538
1537 1535 1530 1525 1521 1515 1505 1511 1527 1530 1530 1529 1526 1522 1519 1516 1512 1507 1503 1499 1495 1491 1488 1487 1486 1487 1489 1491 1492 1495 1499 1504 1507 1512 1517 1520 1522 1523 1524 1525 1526 1528 1529 1529 1530 1531 1532 1533 1534
1543 1542 1547 1544 1531 1524 1517 1523 1536 1533 1531 1530 1526 1523 1519 1516 1512 1508 1503 1499 1495 1492 1489 1487 1486 1487 1488 1490 1491 1494 1497 1502 1506 1511 1516 1519 1522 1523 1523 1523 1524 1526 1527 1527 1528 1529 1529 1530 1530
1549 1547 1547 1547 1536 1533 1521 1527 1533 1530 1530 1529 1526 1523 1519 1516 1512 1508 1504 1500 1496 1493 1491 1489 1488 1488 1489 1491 1492 1494 1497 1501 1506 1511 1515 1519 1522 1522 1522 1522 1523 1524 1525 1526 1526 1527 1527 1527 1527
1559 1557 1552 1549 1545 1538 1528 1532 1541 1536 1533 1530 1527 1524 1521 1517 1513 1509 1506 1502 1498 1495 1493 1492 1491 1491 1491 1493 1494 1496 1499 1504 1508 1511 1515 1518 1520 1520 1521 1522 1522 1523 1523 1524 1524 1525 1524 1524 1523
1564 1562 1558 1551 1548 1551 1543 1548 1548 1546 1541 1536 1531 1527 1522 1517 1514 1511 1508 1505 1502 1499 1498 1497 1496 1496 1496 1497 1499 1501 1503 1507 1510 1513 1515 1517 1518 1518 1519 1520 1521 1522 1522 1522 1522 1523 1522 1521 1521
1566 1565 1563 1561 1555 1552 1553 1557 1552 1549 1544 1538 1533 1528 1523 1518 1515 1512 1510 1508 1506 1504 1503 1502 1501 1501 1501 1502 1504 1505 1508 1510 1512 1514 1515 1516 1516 1517 1517 1518 1519 1520 1520 1521 1521 1520 1520 1520 1520